Tracking 35274 objects as of 11-Sep-2026
HD Live streaming from Space Station
objects crossing your sky now

N-2 R/B(2)


N-2 R/B(2) is no longer on orbit


NORAD ID: 14665
Int'l Code: 1984-005C
Launch date: January 23, 1984
Source: Japan (JPN)
Launch site: TANEGASHIMA SPACE CENTER (TNSTA)
Decay date: 1992-06-30

Note: This is a ROCKET BODY
Your satellite tracking list
Your tracking list is empty




NASA's NSSDC Master Catalog

Two Line Element Set (TLE):
1 14665U 84005  C 92181.91672043  .52473761 -41599-4 +93070-3 0  9992
2 14665 028.1386 008.5140 0127429 048.8427 312.9748 16.25344603097686
Source of the keplerian elements: AFSPC